Hlavní strana
METAR-TAF:

METAR-TAF

Letiště :

Delaware County Airport (Johnson Field)

Muncie, Indiana, Spojené státy americké

zeměpisná šířka: 40-14-03N, zeměpisná délka: 085-23-37W, výška: 285 m

Aktuální stav počasí

Zpráva byla vytvořena před 30 minutami, v 15:53 UTC
Severovýchodní vítr 7 kt
Teplota 4°C
Vlhkost vzduchu 87%
Tlak 1023 hPa
Viditelnost: 4.8 km
Zataženo ve výšce 600 ft
kouřmo

METAR: KMIE 181553Z 04007KT 3SM BR OVC006 04/02 A3020 RMK AO2 SLP230 T00390022

Čas: 11:23 (16:23 UTC)


TAF: chybějící

Stav a předpovědi počasí z více než 4 000 letišť (zprávy METAR a TAF).

Červené a žluté tečky na mapě představují dostupné meteorologické stanice.

Když kurzor umístíte na tečku, zobrazí se název stanice.

Pak kliknutím zobrazíte stav a předpověď počasí.

Chcete-li změnit mapu, kliknutím na zelené tlačítko se znaménkem +mapu přiblížíte, kliknutím na zelené tlačítko se znaménkem – mapu oddálíte a kliknutím na zelené šipky přejdete na sousední mapy.


METAR-TAF: